St. Cloud, MN

3:10 PM CST on December 11, 2017 (GMT -0600)
Saint Cloud Regional

Weather History for KSTC - June, 2013

Change the Weather History Date:

Tuesday, June 25, 2013

  Actual Average Record
Temperature  
Mean Temperature 74 °F 68 °F  
Max Temperature 85 °F 80 °F 97 °F (1964)
Min Temperature 63 °F 56 °F 40 °F (1958)
Degree Days  
Heating Degree Days 0 1  
Month to date heating degree days 87 73  
Since 1 June heating degree days 87 73  
Since 1 July heating degree days 8872 8527  
Cooling Degree Days 9 5  
Month to date cooling degree days 63 70  
Year to date cooling degree days 74 95  
Since 1 June cooling degree days 63 70  
Growing Degree Days 24 (Base 50)    
Moisture  
Dew Point 66 °F    
Average Humidity 76    
Maximum Humidity 100    
Minimum Humidity 51    
Precipitation  
Precipitation 0.00 in 0.14 in 2.19 in (1978)
Month to date precipitation 5.47 3.49  
Year to date precipitation 17.76 11.80  
Snow  
Snow 0.00 in 0.00 in 0.00 in ()
Month to date snowfall 0.0 0.0  
Since 1 June snowfall 0.0 0.0  
Since 1 July snowfall 78.5 45.7  
Snow Depth 0.00 in    
Sea Level Pressure  
Sea Level Pressure 29.78 in    
Wind  
Wind Speed 7 mph (SE)    
Max Wind Speed 16 mph    
Max Gust Speed 21 mph    
Visibility 10 miles    
Events      
T = Trace of Precipitation, MM = Missing Value Source: NWS Daily Summary

Daily Weather History Graph

Daily Weather History Graph

Search for Another Location

Airport or City:

Trip Planner

Search our weather history database for the weather conditions in past years. The results will help you decide how hot, cold, wet, or windy it might be!

Date:

Astronomy

Jun. 25, 2013 Rise Set
Actual Time 5:28 AM CDT 9:09 PM CDT
Civil Twilight 4:50 AM CDT 9:47 PM CDT
Nautical Twilight 3:59 AM CDT 10:38 PM CDT
Astronomical Twilight 2:50 AM CDT 11:47 PM CDT
Moon 10:44 PM CDT (6/25) 8:17 AM CDT (6/25)
Length of Visible Light 16h 56m
Length of Day
15h 40m
Waning Gibbous, 92% of the Moon is Illuminated
Jun 25
Waning Gibbous
Jun 29
Last Quarter
Jul 8
New
Jul 15
First Quarter
Jul 22
Full

Hourly Weather History & Observations

Time (CDT) Temp. Heat Index Dew Point Humidity Pressure Visibility Wind Dir Wind Speed Gust Speed Precip Events Conditions
12:53 AM 66.0 °F - 64.0 °F 93% 29.81 in 10.0 mi SSE 5.8 mph - N/A   Clear
1:53 AM 64.9 °F - 64.0 °F 97% 29.82 in 10.0 mi SSE 4.6 mph - N/A   Clear
2:53 AM 64.9 °F - 64.0 °F 97% 29.82 in 10.0 mi Calm Calm - N/A   Clear
3:53 AM 64.0 °F - 63.0 °F 96% 29.83 in 7.0 mi East 3.5 mph - N/A   Clear
4:53 AM 64.0 °F - 63.0 °F 96% 29.82 in 10.0 mi Calm Calm - N/A   Clear
5:53 AM 63.0 °F - 62.1 °F 97% 29.81 in 10.0 mi East 3.5 mph - N/A   Clear
6:53 AM 64.9 °F - 63.0 °F 93% 29.81 in 10.0 mi Calm Calm - N/A   Clear
7:53 AM 66.0 °F - 63.0 °F 90% 29.81 in 10.0 mi ESE 5.8 mph - N/A   Clear
8:53 AM 70.0 °F - 64.9 °F 84% 29.80 in 10.0 mi ESE 6.9 mph - N/A   Clear
9:53 AM 73.9 °F - 66.0 °F 76% 29.80 in 10.0 mi SE 9.2 mph - N/A   Clear
10:53 AM 77.0 °F - 66.9 °F 71% 29.79 in 10.0 mi South 15.0 mph - N/A   Clear
11:53 AM 79.0 °F - 68.0 °F 69% 29.79 in 10.0 mi SSE 10.4 mph - N/A   Partly Cloudy
12:53 PM 81.0 °F 83.0 °F 66.0 °F 60% 29.78 in 10.0 mi South 13.8 mph - N/A   Clear
1:53 PM 82.9 °F 84.6 °F 64.9 °F 54% 29.78 in 10.0 mi SE 9.2 mph - N/A   Clear
2:53 PM 82.9 °F 84.6 °F 64.9 °F 54% 29.77 in 10.0 mi ESE 8.1 mph 17.3 mph N/A   Clear
3:53 PM 84.0 °F 85.8 °F 64.9 °F 53% 29.76 in 10.0 mi SE 8.1 mph 16.1 mph N/A   Clear
4:53 PM 84.0 °F 86.3 °F 66.0 °F 55% 29.75 in 10.0 mi SE 10.4 mph - N/A   Clear
5:53 PM 84.0 °F 86.5 °F 66.9 °F 56% 29.75 in 10.0 mi SE 9.2 mph - N/A   Partly Cloudy
6:53 PM 82.9 °F 85.0 °F 66.0 °F 56% 29.74 in 10.0 mi SE 9.2 mph - N/A   Partly Cloudy
7:53 PM 80.1 °F 82.7 °F 68.0 °F 67% 29.74 in 10.0 mi ESE 5.8 mph - N/A   Mostly Cloudy
8:53 PM 78.1 °F - 69.1 °F 74% 29.72 in 10.0 mi ESE 4.6 mph - N/A   Clear
9:53 PM 75.9 °F - 69.1 °F 79% 29.72 in 10.0 mi ESE 3.5 mph - N/A   Clear
10:53 PM 73.9 °F - 70.0 °F 87% 29.72 in 10.0 mi ESE 3.5 mph - N/A   Clear
11:53 PM 73.9 °F - 70.0 °F 87% 29.70 in 8.0 mi ESE 6.9 mph - N/A   Clear